GW6104 Weather Reports


time (UTC)temp
C
wind
direction
speed
KPH
gust
KPH
rain 1hr
cm
rain 24hr
cm
rain mn
cm
humidity
%
barometer
mb
20260506001519 16 271 1.6 3.2 0.00 0.00 0.00 75 1016.2
20260506000021 16 336 0.0 3.2 0.00 0.00 0.00 75 1016.2
20260505234514 16 251 0.0 3.2 0.00 0.00 0.00 74 1016.4
20260505233012 16 327 1.6 4.8 0.00 0.00 0.00 74 1016.5
20260505231525 16 282 1.6 6.4 0.00 0.00 0.00 74 1016.6
20260505230038 16 263 1.6 6.4 0.00 0.00 0.00 75 1016.6
20260505224531 16 336 4.8 8.0 0.00 0.00 0.00 75 1016.8
20260505223020 16 334 4.8 8.0 0.00 0.00 0.00 75 1016.8
20260505221528 16 336 3.2 6.4 0.00 0.00 0.00 76 1016.8
20260505220030 16 304 3.2 11.3 0.00 0.00 0.00 76 1016.9
20260505214532 16 321 4.8 8.0 0.00 0.00 0.00 77 1016.7
20260505213024 15 306 1.6 8.0 0.00 0.00 0.00 78 1016.9
20260505211522 15 352 0.0 3.2 0.00 0.00 0.00 78 1017.0
20260505210026 15 346 3.2 4.8 0.00 0.00 0.00 78 1017.1
20260505204527 15 349 1.6 6.4 0.00 0.00 0.00 79 1017.1
20260505203033 15 344 3.2 4.8 0.00 0.00 0.00 82 1017.2
20260505201510 15 287 3.2 6.4 0.00 0.00 0.00 79 1017.2
20260505200008 14 331 4.8 8.0 0.00 0.00 0.00 82 1017.3
20260505194511 14 340 1.6 4.8 0.00 0.00 0.00 83 1017.4
20260505193009 13 319 0.0 6.4 0.00 0.00 0.00 83 1017.5
20260505191524 14 242 0.0 6.4 0.00 0.00 0.00 84 1017.6
20260505190035 13 331 1.6 4.8 0.00 0.00 0.00 84 1017.6
20260505184524 13 253 1.6 3.2 0.00 0.00 0.00 85 1017.6
20260505183020 13 190 3.2 4.8 0.00 0.00 0.00 87 1017.6
20260505181516 13 298 0.0 3.2 0.00 0.00 0.00 87 1017.5
20260505180009 13 269 0.0 3.2 0.00 0.00 0.00 86 1017.5
20260505174528 13 248 0.0 3.2 0.00 0.00 0.00 87 1017.5
20260505173024 13 205 1.6 4.8 0.00 0.00 0.00 87 1017.3
20260505171521 13 48 1.6 3.2 0.00 0.00 0.00 86 1017.2
20260505170021 12 147 0.0 3.2 0.00 0.00 0.00 87 1017.1
20260505164523 12 144 1.6 4.8 0.00 0.00 0.00 89 1017.1
20260505163031 12 123 0.0 3.2 0.00 0.00 0.00 91 1017.1
20260505161528 12 99 0.0 3.2 0.00 0.00 0.00 91 1017.0
20260505153029 11 9 1.6 4.8 0.00 0.00 0.00 92 1016.8
20260505151529 11 11 0.0 3.2 0.00 0.00 0.00 92 1016.7
20260505124515 11 19 3.2 6.4 0.00 0.00 0.00 92 1015.6
20260505123010 11 360 1.6 4.8 0.00 0.00 0.00 92 1015.7
20260505121522 11 5 0.0 6.4 0.00 0.00 0.00 92 1015.6
20260505120033 11 15 0.0 4.8 0.00 0.00 0.00 92 1015.5
20260505114516 11 346 3.2 6.4 0.00 0.00 0.00 91 1015.3
20260505113015 11 28 1.6 4.8 0.00 0.00 0.00 91 1015.4
20260505111522 11 360 3.2 4.8 0.00 0.00 0.00 89 1015.3
20260505101524 11 22 3.2 6.4 0.00 0.00 0.00 86 1015.0
20260505100028 11 352 1.6 3.2 0.00 0.00 0.00 87 1015.0
20260505094518 11 37 1.6 4.8 0.00 0.00 0.00 87 1015.0
20260505093014 11 15 1.6 4.8 0.00 0.00 0.00 87 1014.9
20260505091532 11 11 0.0 3.2 0.00 0.00 0.00 87 1014.7
20260505090027 11 17 0.0 3.2 0.00 0.00 0.00 88 1014.7
20260505084543 11 13 3.2 6.4 0.00 0.00 0.00 88 1014.6
20260505083042 11 352 3.2 6.4 0.00 0.00 0.00 88 1014.5
20260505081526 11 321 1.6 4.8 0.00 0.00 0.00 87 1014.4
20260505080033 11 360 1.6 4.8 0.00 0.00 0.00 87 1014.4
20260505074518 11 9 1.6 8.0 0.00 0.00 0.00 86 1014.3
20260505073024 11 11 4.8 8.0 0.00 0.00 0.00 85 1014.0
20260505071512 12 11 1.6 4.8 0.00 0.00 0.00 85 1014.0
20260505070013 12 352 0.0 8.0 0.00 0.00 0.00 85 1013.9
20260505064508 12 339 3.2 9.7 0.00 0.00 0.00 84 1013.6
20260505063032 12 330 1.6 8.0 0.00 0.00 0.00 83 1013.5
20260505061527 12 311 1.6 4.8 0.00 0.00 0.00 82 1013.2
20260505060038 13 352 1.6 14.5 0.00 0.00 0.00 80 1013.0
20260505054518 13 331 4.8 12.9 0.00 0.00 0.00 79 1012.9
20260505053013 13 322 1.6 11.3 0.00 0.00 0.00 78 1012.9
20260505051520 14 352 6.4 8.0 0.00 0.00 0.00 76 1012.8
20260505041516 16 13 4.8 11.3 0.00 0.00 0.00 70 1012.0
20260505040019 16 342 3.2 8.0 0.00 0.00 0.00 69 1011.6
20260505034528 17 346 8.0 14.5 0.00 0.00 0.00 67 1011.4
20260505033022 17 345 4.8 16.1 0.00 0.00 0.00 66 1011.3
20260505031520 18 337 1.6 12.9 0.00 0.00 0.00 65 1011.1
20260505030016 20 11 8.0 14.5 0.00 0.00 0.00 62 1010.8
20260505024515 21 350 4.8 12.9 0.00 0.00 0.00 65 1010.7
20260505023018 21 320 1.6 4.8 0.00 0.00 0.00 63 1010.4
20260505021530 22 307 3.2 6.4 0.00 0.00 0.00 62 1010.5
20260505020034 22 315 3.2 6.4 0.00 0.00 0.00 59 1010.6
20260505014535 22 323 1.6 6.4 0.00 0.00 0.00 58 1010.6
20260505013036 22 228 3.2 8.0 0.00 0.00 0.00 59 1010.7
20260505011533 22 241 4.8 12.9 0.00 0.00 0.00 57 1010.7
20260505010019 22 212 3.2 9.7 0.00 0.00 0.00 56 1010.7
20260505004520 22 13 3.2 9.7 0.00 0.00 0.00 57 1010.9
20260505003024 22 228 1.6 11.3 0.00 0.00 0.00 57 1011.0